Location: Malvern Link
(52.1333°N, 2.3000°W)
Time: 08:56:44
(UTC+00:00)

Cosmos 1634 Rocket - Pass Details

Date: 01 December 2021
Orbit: 959 x 993 km, 82.9° (Epoch: 24 January)

Event Time Altitude Azimuth Distance (km) Brightness Sun altitude
Rises 18:04:06 0° 180° (S) 3,692 7.2 -18.0°
Reaches altitude 10° 18:06:36 10° 179° (S) 2,750 6.5 -18.4°
Maximum altitude 18:12:54 73° 96° (E) 1,041 3.9 -19.3°
Drops below altitude 10° 18:19:14 10° 13° (NNE) 2,769 6.1 -20.3°
Sets 18:21:46 0° 12° (NNE) 3,720 6.8 -20.6°
